Location: Bucquoy
(50.1391°N, 2.7097°E)
Time: 07:27:58
(UTC+00:00)

Cosmos 2369 Rocket - Pass Details

Date: 06 May 2021
Orbit: 827 x 854 km, 71.0° (Epoch: 21 June)

Event Time Altitude Azimuth Distance (km) Brightness Sun altitude
Exits shadow 01:31:29 27° 247° (WSW) 1,555 3.2 -19.4°
Maximum altitude 01:34:15 48° 307° (NW) 1,085 2.8 -19.2°
Drops below altitude 10° 01:39:43 10° 22° (NNE) 2,467 5.9 -18.7°
Sets 01:42:16 0° 28° (NNE) 3,410 7.1 -18.5°
